Date,TemperatureHighF,TemperatureAvgF,TemperatureLowF,DewpointHighF,DewpointAvgF,DewpointLowF,HumidityHigh,HumidityAvg,HumidityLow,PressureMaxIn,PressureMinIn,WindSpeedMaxMPH,WindSpeedAvgMPH,GustSpeedMaxMPH,PrecipitationSumIn
2013-1-1,48.2,41.3,36.0,45.4,36.6,27.8,95,83,72,30.29,30.02,6,2,13,0.00
2013-1-2,42.8,36.1,32.0,30.8,28.3,26.4,85,74,58,30.34,30.25,5,1,9,0.00
2013-1-3,51.4,39.6,28.4,32.5,29.0,25.2,90,68,42,30.45,30.32,5,1,12,0.00
2013-1-4,54.5,45.5,40.8,37.0,33.7,30.5,79,64,44,30.51,30.36,3,0,6,0.00
2013-1-5,60.1,45.9,38.3,40.7,38.9,35.9,97,78,45,30.36,30.19,3,1,10,0.00
2013-1-6,61.5,44.5,34.2,38.1,29.2,23.0,98,60,23,30.40,30.28,6,1,10,0.00
2013-1-7,59.2,43.2,27.5,36.5,31.2,22.8,91,65,37,30.33,30.09,4,0,8,0.00
2013-1-8,49.3,47.7,46.4,48.5,43.6,35.4,99,86,64,30.09,29.96,4,1,8,0.00
2013-1-9,56.7,53.1,47.1,56.4,52.7,46.9,99,99,97,30.11,29.92,4,1,8,0.00
2013-1-10,59.2,54.5,48.7,56.8,51.0,46.2,99,88,65,29.98,29.90,4,1,8,0.26
2013-1-11,73.0,60.9,47.8,63.3,51.7,44.2,95,74,42,29.94,29.75,6,2,14,1.22
2013-1-12,65.8,55.4,36.5,65.4,52.5,29.3,99,90,68,29.97,29.68,8,3,17,0.71
2013-1-13,46.4,36.8,32.2,28.5,23.0,19.5,75,58,42,30.28,29.95,10,4,16,0.00
2013-1-14,46.9,36.2,29.5,26.9,21.5,17.6,68,56,38,30.34,30.20,4,2,11,0.00
2013-1-15,39.0,35.0,30.2,30.8,26.1,19.8,93,71,54,30.23,30.15,6,2,11,0.00
2013-1-16,52.3,38.8,28.2,24.2,20.4,14.9,70,50,26,30.30,30.16,6,1,9,0.00
2013-1-17,63.3,47.8,36.1,35.4,30.5,24.4,77,53,31,30.49,30.24,6,1,11,0.00
2013-1-18,65.1,48.4,31.1,38.1,33.5,27.9,90,60,30,30.50,30.25,5,1,9,0.00
2013-1-19,70.0,52.3,39.4,47.6,41.8,36.0,91,69,39,30.25,30.12,6,1,13,0.00
2013-1-20,74.3,53.5,38.3,51.9,41.8,36.8,99,70,28,30.20,30.06,4,0,7,0.00
2013-1-21,60.6,48.0,40.5,42.6,34.4,27.6,92,62,36,30.30,30.11,4,1,10,0.00
2013-1-22,70.5,54.8,37.0,50.3,41.6,27.8,83,62,43,30.30,30.16,4,1,8,0.00
2013-1-23,78.8,64.1,52.9,57.7,54.0,49.2,92,71,45,30.26,30.11,4,2,11,0.00
2013-1-24,86.5,65.7,52.5,61.3,54.8,45.1,99,71,40,30.17,30.00,5,1,8,0.00
2013-1-25,54.3,48.9,45.9,47.6,44.3,40.5,99,85,72,30.19,30.03,4,1,8,0.01
2013-1-26,58.6,50.8,46.2,51.4,46.8,40.5,99,86,74,30.22,30.08,2,1,6,0.00
2013-1-27,77.7,64.1,51.3,65.1,58.6,51.0,99,84,53,30.08,29.90,8,2,17,0.00
2013-1-28,78.6,72.1,66.2,67.8,65.7,63.4,97,81,61,29.99,29.83,8,3,14,0.00
2013-1-29,81.0,67.7,54.9,67.8,59.6,31.5,99,77,38,29.83,29.43,8,3,20,0.00
2013-1-30,55.4,48.1,36.1,38.2,27.6,16.5,72,47,24,30.14,29.67,10,4,22,0.00
2013-1-31,71.8,53.3,36.5,33.6,23.3,18.3,61,35,13,30.31,30.08,7,2,13,0.00
2013-2-1,63.0,46.9,31.1,41.0,28.3,18.2,64,49,29,30.39,30.14,4,2,11,0.00
2013-2-2,70.0,57.7,47.5,47.3,39.4,30.2,83,53,23,30.32,30.12,5,2,12,0.00
2013-2-3,73.8,56.5,37.4,40.0,30.7,20.4,86,45,14,30.32,29.98,5,1,10,0.00
2013-2-4,78.4,63.3,53.2,58.6,51.1,29.2,94,67,32,29.97,29.77,6,2,11,0.00
2013-2-5,67.8,60.1,56.8,63.4,59.4,56.4,99,97,82,29.99,29.86,3,0,4,0.00
2013-2-10,57.4,51.9,48.4,40.8,35.2,27.0,73,55,31,30.00,29.92,0,0,2,0.00
2013-2-11,58.5,52.3,47.5,42.2,35.6,27.5,77,54,33,30.14,29.99,4,2,11,0.00
2013-2-12,51.3,48.1,42.1,49.9,46.2,39.1,99,93,78,30.04,29.85,9,2,17,0.00
2013-2-13,42.1,41.4,40.8,39.4,38.4,37.1,91,89,86,30.08,30.04,8,5,15,0.00
2013-2-14,75.7,55.3,39.6,41.9,37.3,24.7,91,57,17,30.09,29.98,4,1,6,0.00
2013-2-15,54.0,47.6,39.6,40.2,27.0,15.9,69,46,26,30.38,30.09,6,2,13,0.00
2013-2-16,63.1,45.9,30.9,31.9,26.6,23.3,78,50,22,30.40,30.15,4,1,8,0.00
2013-2-17,74.7,56.6,37.6,47.1,33.7,22.4,82,48,15,30.16,29.90,7,3,14,0.00
2013-2-18,80.1,63.2,52.7,58.2,45.3,31.4,85,56,22,30.13,29.76,10,4,19,0.00
2013-2-19,65.7,53.2,38.7,37.8,27.4,20.1,71,41,18,30.32,30.12,4,1,10,0.00
2013-2-20,52.2,45.8,43.2,43.2,39.5,34.7,93,79,52,30.16,29.76,5,3,11,0.00
2013-2-21,71.8,54.3,43.3,50.7,40.1,20.4,99,67,15,29.93,29.59,8,3,16,0.00
2013-2-22,52.5,40.6,31.5,39.6,27.2,20.5,84,60,36,30.15,29.92,5,2,12,0.00
2013-2-23,60.6,44.0,30.9,34.8,29.4,25.9,87,59,30,30.09,29.91,5,1,8,0.00
2013-2-24,74.1,55.0,34.0,47.3,39.0,28.1,89,58,32,29.92,29.59,5,2,13,0.00
2013-2-25,64.6,52.3,41.4,55.1,41.8,31.2,93,70,35,29.69,29.48,13,4,21,0.00
2013-2-26,63.0,48.1,40.3,35.9,33.3,29.4,78,59,28,29.90,29.70,11,4,24,0.00
2013-2-27,44.4,42.0,40.6,34.7,33.7,32.9,76,72,66,29.92,29.88,1,0,3,0.00
2013-2-28,61.5,48.5,36.7,31.3,26.9,21.4,75,46,22,30.30,30.17,8,2,12,0.00
2013-3-1,60.6,46.6,36.5,33.8,29.2,24.9,69,52,28,30.30,30.17,4,2,14,0.00
2013-3-2,59.2,44.1,32.2,30.4,25.9,20.0,79,52,24,30.43,30.23,6,2,11,0.00
2013-3-3,75.9,57.6,39.7,42.7,30.5,23.7,55,38,19,30.22,29.78,7,3,14,0.00
2013-3-4,91.0,70.9,56.8,51.1,41.1,28.5,63,40,11,29.78,29.58,8,3,15,0.00
2013-3-5,61.2,52.0,43.5,44.9,25.4,15.5,69,39,21,30.36,29.81,10,5,21,0.00
2013-3-6,69.4,49.8,32.0,29.1,21.2,16.8,69,36,16,30.45,30.19,4,1,7,0.00
2013-3-7,75.4,58.3,41.9,40.2,27.2,19.9,52,33,14,30.22,30.07,6,2,16,0.00
2013-3-8,63.3,59.9,55.9,59.4,54.1,41.7,90,81,54,30.17,29.97,4,2,11,0.00
2013-3-9,72.0,65.2,60.6,66.7,62.2,57.2,99,90,80,29.96,29.63,8,3,16,0.00
2013-3-10,61.0,52.7,41.5,60.4,40.0,31.2,99,63,44,30.09,29.73,11,4,20,0.00
2013-3-11,64.6,48.4,36.5,34.8,25.7,13.7,85,47,18,30.13,29.99,7,2,14,0.00
2013-3-12,73.4,55.6,40.1,32.9,27.1,22.3,64,37,15,30.31,30.03,4,1,12,0.00
2013-3-13,75.7,57.0,42.3,40.5,37.1,33.6,83,52,24,30.43,30.29,4,1,5,0.00
2013-3-14,54.9,51.8,49.6,39.0,38.5,38.1,65,60,55,30.31,30.30,0,0,2,0.00
2013-3-15,86.4,70.3,57.9,55.4,48.7,41.7,84,51,24,30.15,29.88,7,3,11,0.00
2013-3-16,86.0,72.4,58.3,61.2,55.2,48.7,86,56,40,29.87,29.67,9,4,12,0.00
2013-3-17,75.2,67.4,59.7,63.0,55.4,49.3,90,67,46,29.80,29.67,5,2,9,0.00
2013-3-18,73.8,65.1,58.5,65.1,50.8,40.5,98,62,38,29.99,29.63,6,2,13,0.00
2013-3-19,73.6,60.5,49.1,47.8,40.7,31.7,72,50,32,30.11,29.95,4,2,10,0.00
2013-3-20,73.6,59.3,46.2,40.7,31.9,18.8,72,40,15,30.30,30.03,4,1,11,0.00
2013-3-21,71.8,62.4,52.7,60.7,45.5,28.4,84,55,35,30.03,29.54,8,3,17,0.00
2013-3-22,65.5,54.5,47.8,62.2,51.5,44.8,98,90,74,29.84,29.55,5,2,14,0.00
2013-3-23,56.8,51.1,46.8,51.9,49.0,46.5,99,93,83,29.86,29.66,5,1,14,0.00
2013-3-24,57.0,46.6,38.8,50.3,29.3,15.6,99,56,27,30.18,29.83,9,4,21,0.00
2013-3-25,60.3,45.2,33.4,26.7,19.5,13.0,65,39,20,30.40,30.18,6,2,16,0.00
2013-3-26,65.3,46.8,30.2,28.5,22.2,15.7,73,41,18,30.50,30.28,3,1,7,0.00
2013-3-27,74.3,57.4,40.8,46.1,34.3,26.4,63,43,25,30.30,30.06,8,2,16,0.00
2013-3-28,72.7,62.7,51.4,59.3,53.8,45.3,93,73,61,30.20,30.06,4,2,12,0.00
2013-3-29,79.9,68.3,60.1,60.5,58.5,56.7,92,73,45,30.17,29.99,5,2,13,0.00
2013-3-30,79.5,68.1,54.5,65.0,61.1,53.7,99,80,56,30.11,29.87,8,1,24,0.00
2013-3-31,79.5,69.0,60.6,65.1,59.0,53.5,98,73,44,29.98,29.79,4,2,11,0.00
2013-4-1,86.2,68.2,51.8,59.1,52.4,47.1,99,63,27,30.07,29.91,4,1,8,0.00
2013-4-2,70.3,65.8,55.6,65.4,60.6,46.3,99,84,64,30.00,29.85,5,2,15,0.00
2013-4-3,55.0,48.7,44.1,51.2,47.6,43.5,99,96,72,30.15,29.90,4,1,11,0.00
2013-4-4,51.3,46.2,42.3,43.4,42.4,40.4,99,87,73,30.21,30.11,4,2,10,0.00
2013-4-5,72.5,55.5,39.7,50.8,45.4,39.5,99,73,38,30.25,30.02,2,1,6,0.00
2013-4-6,80.2,66.1,55.9,60.6,54.2,46.3,86,67,46,30.02,29.82,6,2,11,0.00
2013-4-7,73.9,67.7,61.9,64.4,61.9,58.6,92,82,72,29.90,29.72,6,2,11,0.00
2013-4-8,77.5,71.8,66.6,67.6,64.6,60.0,87,78,69,29.75,29.65,5,2,14,0.00
2013-4-9,82.0,74.6,69.4,70.2,66.9,63.6,91,77,63,29.69,29.61,6,2,14,0.00
2013-4-10,74.8,47.3,39.2,70.4,44.3,37.7,99,90,68,29.98,29.69,6,2,12,0.00
2013-4-11,64.4,50.7,40.3,41.2,35.4,29.8,83,59,33,29.99,29.82,4,1,8,0.00
2013-4-12,82.0,61.5,45.0,49.2,44.3,40.5,89,58,27,29.99,29.85,3,0,6,0.00
2013-4-13,82.0,68.2,52.9,52.6,49.1,45.7,84,53,31,29.99,29.77,3,1,8,0.00
2013-4-14,84.9,70.9,57.4,68.1,60.0,50.2,90,70,49,29.77,29.53,4,1,10,0.00
2013-4-15,89.1,77.8,69.4,69.3,68.0,66.5,96,74,49,29.74,29.59,4,2,11,0.00
2013-4-16,90.3,79.1,71.4,70.2,68.0,65.6,91,71,47,29.88,29.74,4,2,9,0.00
2013-4-17,87.1,78.4,73.0,72.8,70.1,67.5,97,77,54,29.88,29.60,7,2,14,0.00
2013-4-18,77.4,56.1,45.7,73.7,47.7,35.7,99,75,50,30.15,29.54,8,3,30,0.00
2013-4-19,66.7,52.5,42.1,38.3,31.4,21.6,85,50,19,30.29,30.14,4,1,14,0.00
2013-4-20,75.6,59.5,45.0,39.2,33.4,26.7,66,41,19,30.19,30.00,4,1,11,0.00
2013-6-20,97.7,85.2,75.4,74.1,71.5,68.0,89,66,45,30.07,29.94,3,1,4,0.00
2013-6-21,96.8,86.6,75.6,75.3,70.6,66.4,92,61,40,30.10,29.98,3,1,5,0.00
2013-6-22,97.2,86.5,74.3,74.4,70.0,67.3,88,60,43,30.06,29.91,4,1,5,0.00
2013-6-23,97.0,86.9,76.8,74.4,70.8,66.5,89,61,41,30.02,29.90,4,1,9,0.00
2013-6-24,96.8,87.0,75.6,74.2,70.5,65.9,91,60,41,30.05,29.91,3,1,5,0.00
2013-6-25,98.8,88.4,78.1,74.8,70.1,64.3,85,57,38,30.01,29.85,3,2,6,0.00
2013-6-26,100.9,88.3,77.2,75.7,71.1,64.3,86,58,43,29.99,29.88,3,1,5,0.00
2013-6-27,105.6,89.8,78.8,76.3,71.7,66.9,83,57,36,30.05,29.89,2,0,4,0.00
2013-6-28,106.2,91.0,78.6,72.2,68.0,64.5,67,48,29,29.98,29.85,2,0,6,0.00
2013-6-29,100.2,87.0,76.8,72.9,67.5,60.8,85,56,28,29.95,29.83,3,0,7,0.00
2013-6-30,96.1,84.3,75.7,68.8,61.7,56.8,78,49,29,29.98,29.85,3,1,8,0.00
2013-7-1,78.1,77.6,77.0,57.4,57.2,57.0,50,49,49,29.99,29.98,0,0,1,0.00